sat.trackr.live / text

‹ back to catalog

YAOGAN-31 01B

NORAD 43276 · 2018-034B

PAYLOAD ACTIVE UNKNOWN

§ Identity

Operator
Country
PRC
Launch date
2018-04-10
Launch site
JSC
Launch vehicle
Mass (kg)
RCS (m²)

External: N2YO · Heavens-Above · Gunter

§ Orbital elements

Epoch: 2026-09-20T04:46:32.716992Z

Period
107.03 min
Inclination
63.3934°
Eccentricity
0.0283685
Mean motion
13.45462940 rev/d
Perigee alt
877.2 km
Apogee alt
1,300.8 km
Semi-major
7,467.1 km
B*
1.5147e-4
RAAN
206.7985°
Arg perigee
7.6875°
Mean anomaly
352.8363°
Rev number
41,500

§ Raw data

YAOGAN-31 01B1 43276U 18034B   26263.19898978  .00000024  00000+0  15147-3 0  99922 43276  63.3934 206.7985 0283685   7.6875 352.8363 13.45462940415002

JSON: /api/v1/satellites/43276 · /tle

For live sub-satellite position, see the globe view (requires WebGL).

§ Visibility from observer

Set your observer location to see the next 7 days of passes ≥ 10°. The values pass through the URL so the page stays shareable.

No JS? Fill the form by hand. The geolocation button needs JavaScript.